Weather Roundup
Issued by NWS

Home | Current Version | Previous Version | Text Only | Print | Product List | Glossary On
Versions: 1 2 3 4 5 6 7 8 9 10 11 12 13 14 15 16 17 18 19 20 21 22 23 24 25 26 27 28 29 30 31 32 33 34 35 36 37 38 39 40 41 42 43 44 45 46 47 48 49 50
156
NZUS93 KARX 111459
HRRWXR

CURRENT HOURLY OBSERVATIONS ACROSS
MUCH OF THE UPPER MISSISSIPPI VALLEY
NATIONAL WEATHER SERVICE LA CROSSE WI
900 AM CST THU FEB 11 2016


...SOUTHEAST MINNESOTA...


CITY           SKY/WX    TMP DP  RH WIND       PRES   REMARKS
ROCHESTER      CLOUDY     1  -7  68 W6        30.28S WCI -10
ROCHESTER/MAYO FAIR       6  -1  74 CALM      30.31S
WINONA         CLOUDY     3  -4  72 CALM      30.37R
AUSTIN         CLOUDY     0  -6  78 CALM      30.29S
ALBERT LEA       N/A      1  -2  85 CALM      30.29S
DODGE CENTER   CLOUDY     5  -2  72 SW3       30.27S
PRESTON        CLOUDY     1  -7  69 NW3       30.29S
OWATONNA       CLOUDY     3  -2  78 CALM      30.30S
FARIBAULT        N/A      0  -4  85 CALM      30.31S
$$

...ELSEWHERE IN MINNESOTA...


CITY           SKY/WX    TMP DP  RH WIND       PRES   REMARKS
MINNEAPOLIS    CLOUDY     6  -3  66 CALM      30.33S
INTNL FALLS    CLOUDY    -4 -10  75 SW6       30.21S WCI -16
DULUTH         CLOUDY    -7 -13  75 W9        30.21R WCI -24
RED WING       CLOUDY     1  -6  71 CALM      30.33S
REDWOOD FALLS  CLOUDY     3  -1  83 S3        30.29F
MANKATO        CLOUDY     1  -2  85 SE3       30.31R
WORTHINGTON    CLOUDY     9   0  66 S8        30.25F WCI  -4
FAIRMONT       CLOUDY    -2  -6  84 S3        30.28R
$$

...SOUTHWEST WISCONSIN...


CITY           SKY/WX    TMP DP  RH WIND       PRES   REMARKS
LA CROSSE      CLOUDY     1  -4  79 CALM      30.35S
PRAIRIE DU CHI CLOUDY     2  -5  73 CALM      30.35F
BOSCOBEL       CLOUDY     2  -3  80 CALM      30.36S
LONE ROCK      NOT AVBL
PLATTEVILLE    CLOUDY     3  -3  75 N5        30.30F WCI  -6
FORT MC COY    MOSUNNY  -12 -17  76 CALM      30.33S
VIROQUA        FAIR       1  -4  79 W6        30.27S WCI -10
WIS DELLS      CLOUDY    -2  -8  77 CALM      30.30R
$$

...ELSEWHERE IN WISCONSIN...


CITY           SKY/WX    TMP DP  RH WIND       PRES   REMARKS
MILWAUKEE      MOSUNNY    9  -2  61 NW8       30.29R WCI  -3
MADISON        SUNNY      6  -3  66 NW5       30.31R WCI  -3
GREEN BAY      MOSUNNY    3  -4  72 W7        30.27R WCI  -9
EAU CLAIRE     NOT AVBL
BLACK RVR FLS  FAIR      -6 -13  71 CALM      30.32S
MEDFORD        MOSUNNY   -7 -11  83 CALM      30.21S
WAUSAU         MOSUNNY    1  -6  72 NW8       30.23R WCI -13
WIS RAPIDS     CLOUDY    -1  -5  82 CALM      30.29S
MARSHFIELD     MOSUNNY   -3  -9  75 NW6       30.24R WCI -15
RICE LAKE      MOSUNNY  -10 -15  79 CALM      30.30S
$$

...NORTHEAST IOWA...


CITY           SKY/WX    TMP DP  RH WIND       PRES   REMARKS
WATERLOO       CLOUDY     3  -4  72 NW3       30.35R
DUBUQUE        SUNNY      8  -1  66 N5        30.31R WCI   0
DECORAH        CLOUDY     1  -6  71 CALM      30.30S
MASON CITY     CLOUDY    -2  -5  87 CALM      30.31F
CHARLES CITY   CLOUDY    -2  -9  71 CALM      30.32R
OELWEIN        CLOUDY     1  -6  71 CALM      30.32R
$$

...ELSEWHERE IN IOWA...


CITY           SKY/WX    TMP DP  RH WIND       PRES   REMARKS
DES MOINES     MOSUNNY   11  -1  58 NE3       30.35R
IOWA CITY      SUNNY     13   1  59 CALM      30.38R
FORT DODGE     CLOUDY     3   0  85 CALM      30.33S
MARSHALLTOWN   CLOUDY     5  -3  69 N3        30.33R
CEDAR RAPIDS   SUNNY     11   4  73 NE3       30.33R
$$

...NORTHERN ILLINOIS...


CITY           SKY/WX    TMP DP  RH WIND       PRES   REMARKS
CHICAGO-OHARE  MOSUNNY   11  -1  58 N9        30.30R WCI  -2
CHICAGO-MIDWAY MOSUNNY   13  -2  51 N9        30.31R WCI   1
MOLINE         SUNNY     14   1  56 NE5       30.36R WCI   6
ROCKFORD       SUNNY     11   0  61 NW7       30.34R WCI   0
PEORIA         SUNNY     15   4  61 NE7       30.35R WCI   5
$$

NOTE: "FAIR" INDICATES FEW OR NO CLOUDS BELOW 12,000 FEET WITH NO
SIGNIFICANT WEATHER AND/OR OBSTRUCTIONS TO VISIBILITY. WIND
SPEEDS ARE IN MILES-PER-HOUR.




USA.gov is the U.S. government's official web portal to all federal, state and local government web resources and services.